Location: Sweet Grass
(48.9965°N, 111.9649°W)
Time: 17:55:41
(UTC+00:00)

DX 1 - Pass Details

Date: 06 April 2023
Orbit: 615 x 625 km, 98.4° (Epoch: 04 June)

Event Time Altitude Azimuth Distance (km) Brightness Sun altitude
Rises 05:07:42 0° 23° (NNE) 2,899 ? -26.5°
Reaches altitude 10° 05:10:09 10° 35° (NE) 1,988 ? -26.7°
Enters shadow 05:10:55 14° 42° (NE) 1,728 ? -26.8°
